Regional Weather Roundup
Issued by NWS Newport/Morehead, NC

Current Version | Previous Version | Graphics & Text | Print | Product List | Glossary On
Versions: 1 2 3 4 5 6 7 8 9 10 11 12 13 14 15 16 17 18 19 20 21 22 23 24 25 26 27 28 29 30 31 32 33 34 35 36 37 38 39 40 41 42 43 44 45 46 47 48 49 50
000
ASUS42 KMHX 181012
RWRMHX
WEATHER ROUNDUP FOR EASTERN NORTH CAROLINA
NATIONAL WEATHER SERVICE NEWPORT/MOREHEAD CITY NC
600 AM EDT SAT APR 18 2015

NOTE: "FAIR" INDICATES FEW OR NO CLOUDS BELOW 12,000 FEET
WITH NO SIGNIFICANT WEATHER AND/OR OBSTRUCTIONS TO VISIBILITY

NCZ015>017-031-032-045>047-102-103-181100-
NORTH COAST

CITY           SKY/WX    TMP DP  RH WIND       PRES   REMARKS
EDENTON        PTCLDY    61  60  96 CALM      29.98R
ELIZABETH CITY FAIR      63  62  97 SW3       29.96F
KITTY HAWK     PTSUNNY   64  64  99 CALM      29.96S FOG
MANTEO         FOG       61  60  99 CALM      29.97S VSB 1

$$

NCZ045>047-081-094-103-104-181100-
CENTRAL COAST

CITY           SKY/WX    TMP DP  RH WIND       PRES   REMARKS
FRISCO         CLOUDY    63  61  93 NE3       29.96F
SWANQUARTER      N/A     64 N/A N/A CALM      29.94R

$$

NCZ095-097-098-100-101-181100-
SOUTHERN COAST

CITY           SKY/WX    TMP DP  RH WIND       PRES   REMARKS
BEAUFORT       CLOUDY    65  64  97 NE5       29.97R
CEDAR ISLAND     N/A     66 N/A N/A CALM      30.00S
JACKSONVILLE   CLOUDY    65  63  93 CALM      29.97R
PINEY ISLAND   CLOUDY   N/A N/A N/A N3        29.97R
WILMINGTON     LGT RAIN  66  64  93 CALM      29.97R


$$

NCZ011>013-027>030-043-044-078>080-089-090>093-098-181100-
COASTAL PLAIN

CITY           SKY/WX    TMP DP  RH WIND       PRES   REMARKS
AHOSKIE        FOG       57  56  97 CALM      29.98R VSB 3/4
CLINTON        CLOUDY    65  65 100 CALM      29.98R
ELIZABETHTOWN  DRIZZLE   66  66 100 CALM      29.98R
GOLDSBORO      CLOUDY    65  64  96 CALM      29.96R
GREENVILLE     CLOUDY    64  63  94 CALM      30.00R
HAVELOCK       CLOUDY    65  63  93 CALM      29.99R
KENANSVILLE    CLOUDY    63  62  97 CALM      29.98R
KINSTON        CLOUDY    64  63  99 CALM      29.99R
NEW BERN       CLOUDY    65  62  90 CALM      29.99R
RICHLANDS      CLOUDY    63  59  88 CALM      29.98R
ROCKY MOUNT    CLOUDY    61  61 100 CALM      29.99R FOG
WASHINGTON       N/A     63  62  96 CALM      29.98R
WHITEVILLE     RAIN      65  64  96 CALM      29.97R

$$

AMZ130-135-150-152-154-156-158-170-250-252-270-ANZ085-086-088-633-658-670-181100-
MARINE OBSERVATIONS

STATION/POSITION TIME  TEMP    WIND        PRES    WAVE   SWELL
                       AIR SEA DIR/SP/G            HT/PER HT/PER
                 (UTC) (F)     (DEG/KT/KT) (MB)    (FT/S) (FT/S)
CHESAPEAKE LIGHT 1000   63     230/ 13/ 13 1015.1
64 E VA BEACH    0950   58 54  220/  6/  8 1014.0    4/ 6   3/ 6
DUCK             0900   65 52  210/  5/  5 1013.7
2 E DUCK         0911      54                N/A     4/ 8   2/11
10 NE DUCK       NOT AVBL
OREGON INLET     0900   60 60   CALM  /  1 1014.7
HATTERAS CG      0900   67 66   40/  1/  3 1014.2
DIAMOND BUOY     0950   71 75   10/  6/  8 1014.2    5/ 9   5/ 9
CAPE LOOKOUT     1000   66      30/  7/  7 1014.5
BEAUFORT LAB     0900   65 64   50/  3/  4 1013.2
27 SE WRIGHTSVLE NOT AVBL
5 SE WRIGHTSVLE  0900   64 63   30/  4/  6 1014.1
225 S CAPE HAT   0950   72 73  220/  8/ 10 1014.1    6/ 9   5/ 9
41 SE CHARLESTON 0950   70 75  340/  6/  8 1013.2    4/ 8   3/ 8

$$


USA.gov is the U.S. government's official web portal to all federal, state and local government web resources and services.